Latest Coastal Weather Observations for Gabo Island (VIC)

IDN60701

Issued at 2:51 am EST Wednesday 29 June 2016 (issued every 10 minutes, with the page automatically refreshed every 10 minutes)

About coastal observations | Map of coastal stations | Coastal observations for NSW | Marine services | Other Formats
Station Details ID: 084016 Name: GABO ISLAND LIGHTHOUSE Lat: -37.57 Lon: 149.92 Height: 15.2 m
Data from the previous 72 hours. | See also: Recent months at Gabo Island (VIC)
Date/Time
EST
Temp
°C
Wind Pressure Rain since
9am
mm
Weather Cloud Vis
km
Sea
Height
m
Swell
Dir  Spd
kts
Gust
kts
hPa Trend Height
m
Period
s
Dir
29/02:30am 11.0 WNW 9 13 1024.7 - 0.0 - - - - - - -
29/02:00am 11.2 WNW 10 14 1024.6 - 0.0 - - - - - - -
29/01:30am 11.0 WNW 11 15 1024.7 - 0.0 - - - - - - -
29/01:00am 11.2 WNW 10 14 1024.6 - 0.0 - - - - - - -
29/12:30am 10.3 WNW 7 10 1024.7 - 0.0 - - - - - - -
29/12:00am 10.9 NW 9 11 1024.8 - 0.0 - - - - - - -
 
Date/Time
EST
Temp
°C
Wind Pressure Rain since
9am
mm
Weather Cloud Vis
km
Sea
Height
m
Swell
Dir  Spd
kts
Gust
kts
hPa Trend Height
m
Period
s
Dir
28/11:30pm 10.5 NW 8 12 1024.9 - 0.0 - - - - - - -
28/11:00pm 10.2 WNW 7 10 1024.9 - 0.0 - - - - - - -
28/10:30pm 10.4 WNW 8 10 1024.8 - 0.0 - - - - - - -
28/10:00pm 11.1 NW 8 11 1024.9 - 0.0 - - - - - - -
28/09:30pm 10.1 NW 6 8 1025.0 - 0.0 - - - - - - -
28/09:00pm 10.5 WNW 6 7 1024.8 - 0.0 Fine Mostly clear 40 1 1.0 - -
28/08:30pm 11.0 NW 6 6 1024.5 - 0.0 - - - - - - -
28/08:00pm 11.0 NW 6 8 1024.4 - 0.0 - - - - - - -
28/07:30pm 11.3 WNW 7 9 1024.4 - 0.0 - - - - - - -
28/07:00pm 11.4 W 7 7 1024.1 - 0.0 - - - - - - -
28/06:30pm 12.0 W 6 8 1023.9 - 0.0 - - - - - - -
28/06:00pm 12.5 W 8 10 1023.5 - 0.0 - - - - - - -
28/05:30pm 13.0 WSW 11 13 1023.2 - 0.0 - - - - - - -
28/05:00pm 13.1 WSW 11 14 1023.1 - 0.0 - - - - - - -
28/04:30pm 13.6 WSW 15 18 1022.9 - 0.0 - - - - - - -
28/04:00pm 14.1 SW 18 22 1022.6 - 0.0 - - - - - - -
28/03:30pm 14.4 SW 19 24 1022.2 - 0.0 - - - - - - -
28/03:00pm 14.9 WSW 15 19 1022.1 - 0.0 Fine Mostly clear 40 1 1.0 - -
28/02:30pm 15.0 WSW 16 19 1021.9 - 0.0 - - - - - - -
28/02:00pm 15.0 WSW 16 20 1021.8 - 0.0 - - - - - - -
28/01:30pm 15.2 WSW 14 18 1021.6 - 0.0 - - - - - - -
28/01:00pm 14.8 WSW 13 15 1021.8 - 0.0 - - - - - - -
28/12:30pm 14.6 WSW 13 17 1022.0 - 0.0 - - - - - - -
28/12:00pm 14.0 WSW 15 19 1022.3 - 0.0 - - - - - - -
28/11:30am 13.9 WSW 15 20 1022.5 - 0.0 - - - - - - -
28/11:00am 13.4 W 15 18 1022.6 - 0.0 - - - - - - -
28/10:30am 12.8 W 17 20 1022.6 - 0.0 - - - - - - -
28/10:00am 12.2 W 16 20 1022.6 - 0.0 - - - - - - -
28/09:30am 11.5 W 17 20 1022.4 - 0.0 - - - - - - -
28/09:00am 10.8 W 13 17 1022.1 - 0.0 Fine Mostly clear 40 1 1.0 - -
28/08:30am 10.4 W 15 18 1021.6 - 0.0 - - - - - - -
28/08:00am 10.2 W 16 19 1021.4 - 0.0 - - - - - - -
28/07:30am 10.0 W 17 21 1021.2 - 0.0 - - - - - - -
28/07:00am 9.8 W 16 20 1020.7 - 0.0 - - - - - - -
28/06:30am 9.9 W 16 19 1020.4 - 0.0 - - - - - - -
28/06:00am 10.1 W 16 19 1019.9 - 0.0 - - - - - - -
28/05:30am 10.1 W 17 20 1019.6 - 0.0 - - - - - - -
28/05:00am 10.3 W 18 23 1019.3 - 0.0 - - - - - - -
28/04:30am 10.3 W 16 20 1019.1 - 0.0 - - - - - - -
28/04:00am 10.2 W 17 22 1018.9 - 0.0 - - - - - - -
28/03:30am 9.9 W 19 22 1018.9 - 0.0 - - - - - - -
28/03:00am 10.1 W 19 24 1018.8 - 0.0 Fine Mostly clear 30 2 1.0 - -
28/02:30am 10.2 W 20 23 1018.7 - 0.0 - - - - - - -
28/02:00am 10.2 W 19 23 1018.7 - 0.0 - - - - - - -
28/01:30am 10.0 W 17 20 1018.7 - 0.0 - - - - - - -
28/01:00am 10.2 W 17 21 1018.7 - 0.0 - - - - - - -
28/12:30am 10.3 W 18 23 1018.7 - 0.0 - - - - - - -
28/12:00am 10.7 W 19 24 1018.5 - 0.0 - - - - - - -
 
Date/Time
EST
Temp
°C
Wind Pressure Rain since
9am
mm
Weather Cloud Vis
km
Sea
Height
m
Swell
Dir  Spd
kts
Gust
kts
hPa Trend Height
m
Period
s
Dir
27/11:30pm 10.9 WSW 22 26 1018.3 - 0.0 - - - - - - -
27/11:00pm 10.9 WSW 21 25 1018.2 - 0.0 - - - - - - -
27/10:30pm 11.3 WSW 21 25 1018.1 - 0.0 - - - - - - -
27/10:00pm 11.2 WSW 19 25 1017.9 - 0.0 - - - - - - -
27/09:30pm 11.4 WSW 21 25 1017.7 - 0.0 - - - - - - -
27/09:00pm 11.0 W 20 23 1017.6 - 0.0 Fine Partly cloudy 30 1 1.0 - -
27/08:30pm 10.9 W 18 22 1017.5 - 0.0 - - - - - - -
27/08:00pm 10.8 W 14 18 1017.4 - 0.0 - - - - - - -
27/07:30pm 11.1 W 16 20 1017.2 - 0.0 - - - - - - -
27/07:00pm 10.7 W 15 17 1017.1 - 0.0 - - - - - - -
27/06:30pm 11.1 W 16 19 1016.8 - 0.0 - - - - - - -
27/06:00pm 11.3 WSW 18 21 1016.7 - 0.0 - - - - - - -
27/05:30pm 11.4 WSW 20 25 1016.3 - 0.0 - - - - - - -
27/05:00pm 11.4 WSW 19 23 1016.0 - 0.0 - - - - - - -
27/04:30pm 11.9 SW 18 21 1015.6 - 0.0 - - - - - - -
27/04:00pm 11.9 WSW 17 21 1015.3 - 0.0 - - - - - - -
27/03:30pm 12.2 SW 18 22 1015.0 - 0.0 - - - - - - -
27/03:00pm 12.1 SW 19 21 1014.8 - 0.0 Fine Partly cloudy 30 2 1.0 - -
27/02:30pm 12.2 WSW 14 18 1014.7 - 0.0 - - - - - - -
27/02:00pm 12.1 SW 17 21 1014.7 - 0.0 - - - - - - -
27/01:30pm 12.2 WSW 14 20 1014.8 - 0.0 - - - - - - -
27/01:00pm 12.1 W 11 13 1014.9 - 0.0 - - - - - - -
27/12:30pm 12.0 WSW 13 17 1015.2 - 0.0 - - - - - - -
27/12:00pm 10.7 W 14 17 1015.5 - 0.0 - - - - - - -
27/11:30am 10.4 W 15 19 1016.0 - 0.0 - - - - - - -
27/11:00am 10.0 W 16 19 1016.2 - 0.0 - - - - - - -
27/10:30am 9.7 W 16 20 1016.2 - 0.0 - - - - - - -
27/10:00am 9.7 W 15 18 1016.2 - 0.0 - - - - - - -
27/09:30am 10.0 W 14 17 1016.2 - 0.0 - - - - - - -
27/09:00am 9.7 W 13 16 1016.0 - 0.0 Fine Mostly cloudy 40 1 1.0 - -
27/08:30am 8.6 W 13 18 1016.0 - 0.0 - - - - - - -
27/08:00am 8.4 W 12 16 1015.7 - 0.0 - - - - - - -
27/07:30am 8.1 W 12 15 1015.6 - 0.0 - - - - - - -
27/07:00am 8.0 W 11 15 1015.4 - 0.0 - - - - - - -
27/06:30am 8.4 W 12 15 1015.1 - 0.0 - - - - - - -
27/06:00am 8.3 W 11 15 1014.8 - 0.0 - - - - - - -
27/05:30am 9.0 W 15 19 1014.5 - 0.0 - - - - - - -
27/05:00am 9.2 W 16 19 1014.3 - 0.0 - - - - - - -
27/04:30am 9.2 W 13 17 1014.4 - 0.0 - - - - - - -
27/04:00am 8.7 W 12 14 1014.6 - 0.0 - - - - - - -
27/03:30am 8.6 W 10 12 1014.9 - 0.0 - - - - - - -
27/03:00am 8.8 WNW 9 11 1014.7 - 0.0 Fine Cloudy 30 1 1.0 - -
27/02:30am 8.9 W 9 11 1014.7 - 0.0 - - - - - - -
27/02:00am 9.3 WNW 7 9 1014.8 - 0.0 - - - - - - -
27/01:30am 9.2 WNW 8 9 1014.6 - 0.0 - - - - - - -
27/01:00am 9.3 WNW 8 10 1014.5 - 0.0 - - - - - - -
27/12:30am 9.4 WNW 8 9 1014.6 - 0.0 - - - - - - -
27/12:00am 9.7 WNW 7 8 1014.9 - 0.0 - - - - - - -
 
Date/Time
EST
Temp
°C
Wind Pressure Rain since
9am
mm
Weather Cloud Vis
km
Sea
Height
m
Swell
Dir  Spd
kts
Gust
kts
hPa Trend Height
m
Period
s
Dir
26/11:30pm 9.5 WNW 8 8 1015.1 - 0.0 - - - - - - -
26/11:00pm 9.7 WNW 7 8 1015.3 - 0.0 - - - - - - -
26/10:30pm 9.6 WNW 7 8 1015.3 - 0.0 - - - - - - -
26/10:00pm 9.8 WNW 7 7 1015.6 - 0.0 - - - - - - -
26/09:30pm 10.1 WNW 6 7 1015.8 - 0.0 - - - - - - -
26/09:00pm 10.2 WNW 6 7 1016.0 - 0.0 Fine Mostly cloudy 30 1 1.0 - -
26/08:30pm 10.3 WNW 7 8 1016.3 - 0.0 - - - - - - -
26/08:00pm 10.1 NW 6 7 1016.5 - 0.0 - - - - - - -
26/07:30pm 10.0 NW 6 7 1016.7 - 0.0 - - - - - - -
26/07:00pm 11.3 WSW 7 9 1016.4 - 0.0 - - - - - - -
26/06:30pm 12.3 SSW 10 11 1016.2 - 0.0 - - - - - - -
26/06:00pm 12.3 SW 11 13 1016.2 - 0.0 - - - - - - -
26/05:30pm 12.4 SW 12 13 1015.9 - 0.0 - - - - - - -
26/05:00pm 12.4 SW 11 13 1015.9 - 0.0 - - - - - - -
26/04:30pm 12.5 SSW 13 14 1015.8 - 0.0 - - - - - - -
26/04:00pm 12.6 SSW 14 15 1015.9 - 0.0 - - - - - - -
26/03:30pm 12.8 SSW 14 16 1016.1 - 0.0 - - - - - - -
26/03:00pm 12.9 SSW 14 15 1016.2 - 0.0 Fine Mostly cloudy 30 1 1.0 - -
26/02:30pm 13.2 SW 12 15 1016.6 - 0.0 - - - - - - -
26/02:00pm 13.4 SW 13 15 1016.6 - 0.0 - - - - - - -
26/01:30pm 14.0 WSW 12 15 1016.5 - 0.0 - - - - - - -
26/01:00pm 13.1 WSW 12 16 1016.6 - 0.0 - - - - - - -
26/12:30pm 13.6 W 12 16 1017.3 - 0.0 - - - - - - -
26/12:00pm 13.6 W 15 18 1017.8 - 0.0 - - - - - - -
26/11:30am 12.8 W 17 20 1018.4 - 0.0 - - - - - - -
26/11:00am 12.6 W 18 22 1018.9 - 0.0 - - - - - - -
26/10:30am 12.7 W 18 23 1019.2 - 0.0 - - - - - - -
26/10:00am 11.8 W 20 24 1019.2 - 0.0 - - - - - - -
26/09:30am 11.6 W 17 23 1019.3 - 0.0 - - - - - - -
26/09:00am 10.8 W 13 17 1019.3 - 3.2 Fine Partly cloudy 30 2 1.0 - -
26/08:30am 10.7 W 16 21 1019.0 - 3.2 - - - - - - -
26/08:00am 10.2 W 19 24 1019.1 - 3.2 - - - - - - -
26/07:30am 9.8 W 19 23 1019.1 - 3.2 - - - - - - -
26/07:00am 9.5 W 19 24 1018.9 - 3.2 - - - - - - -
26/06:30am 9.6 W 20 24 1018.7 - 3.2 - - - - - - -
26/06:00am 9.7 W 20 25 1018.4 - 3.2 - - - - - - -
26/05:30am 9.5 W 21 25 1018.4 - 3.2 - - - - - - -
26/05:00am 10.0 W 21 25 1018.5 - 3.2 - - - - - - -
26/04:30am 9.9 W 18 25 1018.5 - 3.2 - - - - - - -
26/04:00am 9.7 W 20 25 1018.2 - 3.2 - - - - - - -
26/03:30am 9.5 W 21 27 1018.2 - 3.2 - - - - - - -
26/03:00am 9.5 W 21 25 1018.2 - 3.2 Fine Cloudy 20 3 1.0 - -

Other Formats:

Comma delimited format used in spreadsheet applications
http://www.bom.gov.au/fwo/IDN60701/IDN60701.94933.axf

JavaScript Object Notation format (JSON) in row-major order
http://www.bom.gov.au/fwo/IDN60701/IDN60701.94933.json